Seward, AK

11:07 AM AKDT on March 30, 2017 (GMT -0800)
Seward

Weather History for PAWD - December, 2013

Change the Weather History Date:

Monday, December 30, 2013

  Actual Average Record
Temperature  
Mean Temperature 37 °F -  
Max Temperature 46 °F 31 °F 46 °F (2013)
Min Temperature 28 °F 23 °F -5 °F (1961)
Degree Days  
Heating Degree Days 28    
Moisture  
Dew Point 26 °F    
Average Humidity 70    
Maximum Humidity 82    
Minimum Humidity 46    
Precipitation  
Precipitation 0.00 in - - ()
Sea Level Pressure  
Sea Level Pressure 29.50 in    
Wind  
Wind Speed 7 mph (North)    
Max Wind Speed 13 mph    
Max Gust Speed 18 mph    
Visibility 10 miles    
Events      
Averages and records for this station are not official NWS values.
T = Trace of Precipitation, MM = Missing Value Source: NWS Daily Summary

Daily Weather History Graph

Daily Weather History Graph

Search for Another Location

Airport or City:

Trip Planner

Search our weather history database for the weather conditions in past years. The results will help you decide how hot, cold, wet, or windy it might be!

Date:

Astronomy

Dec. 30, 2013 Rise Set
Actual Time 10:01 AM AKST 3:59 PM AKST
Civil Twilight 9:04 AM AKST 4:56 PM AKST
Nautical Twilight 8:07 AM AKST 5:53 PM AKST
Astronomical Twilight 7:16 AM AKST 6:45 PM AKST
Moon 7:47 AM AKST 2:57 PM AKST
Length of Visible Light 7h 52m
Length of Day
5h 57m
Waning Crescent, 4% of the Moon is Illuminated
Dec 30
Waning Crescent
Jan 1
New
Jan 7
First Quarter
Jan 15
Full
Jan 23
Last Quarter

Hourly Weather History & Observations

Time (AKST) Temp. Windchill Dew Point Humidity Pressure Visibility Wind Dir Wind Speed Gust Speed Precip Events Conditions
12:53 AM 46.9 °F - 27.0 °F 46% 29.60 in 10.0 mi NNW 4.6 mph - N/A   Overcast
1:53 AM 34.0 °F 29.8 °F 28.0 °F 79% 29.57 in 10.0 mi North 4.6 mph - N/A   Overcast
3:53 AM 39.0 °F 31.8 °F 28.9 °F 67% 29.52 in 10.0 mi North 11.5 mph - N/A   Clear
4:53 AM 39.9 °F 33.9 °F 28.9 °F 65% 29.49 in 10.0 mi NNE 9.2 mph 18.4 mph N/A   Scattered Clouds
5:53 AM 42.1 °F 35.7 °F 28.9 °F 60% 29.48 in 10.0 mi NNE 11.5 mph 18.4 mph N/A   Overcast
6:53 AM 42.1 °F 35.2 °F 28.9 °F 60% 29.46 in 10.0 mi North 12.7 mph - N/A   Overcast
7:53 AM 41.0 °F 34.7 °F 28.9 °F 62% 29.45 in 10.0 mi North 10.4 mph 17.3 mph N/A   Overcast
8:53 AM 41.0 °F 37.1 °F 28.0 °F 60% 29.44 in 10.0 mi NNW 5.8 mph - N/A   Overcast
9:53 AM 37.0 °F 30.4 °F 27.0 °F 67% 29.44 in 10.0 mi North 9.2 mph - N/A   Overcast
10:53 AM 37.0 °F 29.3 °F 27.0 °F 67% 29.44 in 10.0 mi North 11.5 mph - N/A   Overcast
11:53 AM 37.0 °F 31.6 °F 27.0 °F 67% 29.44 in 10.0 mi North 6.9 mph - N/A   Overcast
12:53 PM 37.0 °F 29.8 °F 27.0 °F 67% 29.43 in 10.0 mi North 10.4 mph - N/A   Overcast
1:53 PM 35.1 °F 26.4 °F 26.1 °F 70% 29.42 in 10.0 mi North 12.7 mph - N/A   Overcast
2:53 PM 35.1 °F 27.9 °F 26.1 °F 70% 29.43 in 10.0 mi NNW 9.2 mph - N/A   Overcast
3:53 PM 33.1 °F - 26.1 °F 75% 29.44 in 10.0 mi Calm Calm - N/A   Overcast
4:53 PM 34.0 °F 28.0 °F 25.0 °F 70% 29.46 in 10.0 mi NNW 6.9 mph - N/A   Overcast
5:53 PM 32.0 °F 25.6 °F 25.0 °F 75% 29.48 in 10.0 mi North 6.9 mph - N/A   Overcast
6:53 PM 30.9 °F 24.3 °F 24.1 °F 76% 29.49 in 10.0 mi NNW 6.9 mph - N/A   Overcast
7:53 PM 33.1 °F 28.7 °F 24.1 °F 70% 29.52 in 10.0 mi NNW 4.6 mph - N/A   Overcast
8:53 PM 30.9 °F 27.5 °F 24.1 °F 76% 29.54 in 10.0 mi North 3.5 mph - N/A   Overcast
9:53 PM 30.0 °F 25.2 °F 24.1 °F 79% 29.56 in 10.0 mi North 4.6 mph - N/A   Overcast
10:40 PM 28.4 °F - 23.0 °F 80% 29.57 in 10.0 mi Calm Calm - N/A   Overcast
10:50 PM 30.2 °F 26.7 °F 24.8 °F 80% 29.57 in 10.0 mi North 3.5 mph - N/A   Overcast
10:53 PM 30.0 °F 25.2 °F 25.0 °F 82% 29.57 in 10.0 mi North 4.6 mph - N/A   Overcast
11:07 PM 32.0 °F 26.4 °F 24.8 °F 75% 29.57 in 10.0 mi NNW 5.8 mph - N/A   Overcast
11:53 PM 37.0 °F 32.4 °F 25.0 °F 62% 29.60 in 10.0 mi North 5.8 mph - N/A   Overcast